Weather History for Abilene, TX

Change the Weather History Date:

Tuesday, May 15, 2012

  Actual Average Record
Temperature  
Mean Temperature 69 °F 73 °F  
Max Temperature 82 °F 84 °F 104 °F (1978)
Min Temperature 56 °F 61 °F 42 °F (1973)
Degree Days  
Heating Degree Days 0 0  
Month to date heating degree days 5 13  
Since 1 July heating degree days 2089 2555  
Cooling Degree Days 4 8  
Month to date cooling degree days 127 102  
Year to date cooling degree days 422 235  
Growing Degree Days 20 (Base 50)    
Moisture  
Dew Point 53 °F    
Average Humidity 61    
Maximum Humidity 93    
Minimum Humidity 28    
Precipitation  
Precipitation 0.00 in 0.10 in 1.48 in (1920)
Month to date precipitation 1.98 1.32  
Year to date precipitation 8.53 7.08  
Sea Level Pressure  
Sea Level Pressure 30.06 in    
Wind  
Wind Speed 6 mph (NNW)    
Max Wind Speed 12 mph    
Max Gust Speed 28 mph    
Visibility 10 miles    
Events      
T = Trace of Precipitation, MM = Missing Value Source: NWS Daily Summary

Daily Weather History Graph

Daily Weather History Graph

Search for Another Location

Airport:

Trip Planner

Search our weather history database for the weather conditions in past years. The results will help you decide how hot, cold, wet, or windy it might be!

Date:

Astronomy

May. 15, 2012 Rise Set
Actual Time 6:40 AM CDT 8:30 PM CDT
Civil Twilight 6:13 AM CDT 8:57 PM CDT
Nautical Twilight 5:40 AM CDT 9:30 PM CDT
Astronomical Twilight 5:05 AM CDT 10:04 PM CDT
Moon 3:27 AM CDT (5/15) 4:04 PM CDT (5/15)
Length of Visible Light 14h 44m
Length of Day
13h 50m
Waning Crescent, 23% of the Moon is Illuminated
May 15
Waning Crescent
May 20
New
May 28
First Quarter
Jun 4
Full
Jun 11
Last Quarter

Hourly Weather History & Observations

Time (CDT) Temp. Dew Point Humidity Pressure Visibility Wind Dir Wind Speed Gust Speed Precip Events Conditions
12:52 AM 64.0 °F 59.0 °F 84% 30.06 in 10.0 mi NNW 8.1 mph - 0.00 in   Overcast
1:52 AM 63.0 °F 57.9 °F 84% 30.04 in 10.0 mi NW 6.9 mph - N/A   Mostly Cloudy
2:52 AM 62.1 °F 57.9 °F 86% 30.04 in 10.0 mi NNW 6.9 mph - N/A   Clear
3:52 AM 61.0 °F 57.0 °F 87% 30.04 in 10.0 mi NNW 6.9 mph - N/A   Scattered Clouds
4:52 AM 59.0 °F 57.0 °F 93% 30.04 in 10.0 mi NW 3.5 mph - N/A   Partly Cloudy
5:52 AM 57.9 °F 55.9 °F 93% 30.06 in 10.0 mi NW 5.8 mph - N/A   Clear
6:52 AM 57.0 °F 55.9 °F 96% 30.08 in 10.0 mi NW 3.5 mph - N/A   Clear
7:52 AM 59.0 °F 57.0 °F 93% 30.09 in 10.0 mi NNW 6.9 mph - N/A   Clear
8:52 AM 62.1 °F 57.9 °F 86% 30.10 in 9.0 mi North 3.5 mph - N/A   Clear
9:52 AM 66.0 °F 57.9 °F 75% 30.11 in 10.0 mi Calm Calm - N/A   Clear
10:52 AM 71.1 °F 57.9 °F 63% 30.10 in 10.0 mi NW 5.8 mph - N/A   Clear
11:52 AM 73.9 °F 55.9 °F 53% 30.09 in 10.0 mi North 4.6 mph - N/A   Clear
12:52 PM 78.1 °F 53.1 °F 42% 30.08 in 10.0 mi Variable 6.9 mph - N/A   Partly Cloudy
1:52 PM 78.1 °F 46.9 °F 33% 30.06 in 10.0 mi NNE 9.2 mph - N/A   Mostly Cloudy
2:52 PM 79.0 °F 45.0 °F 30% 30.05 in 10.0 mi ENE 8.1 mph - N/A   Mostly Cloudy
3:52 PM 79.0 °F 46.9 °F 32% 30.04 in 10.0 mi Variable 6.9 mph - N/A   Mostly Cloudy
4:52 PM 79.0 °F 46.0 °F 31% 30.03 in 10.0 mi NNE 5.8 mph - N/A   Overcast
5:52 PM 79.0 °F 46.9 °F 32% 30.02 in 10.0 mi NNW 6.9 mph - N/A   Scattered Clouds
6:52 PM 80.1 °F 45.0 °F 29% 30.01 in 10.0 mi ENE 5.8 mph - N/A   Mostly Cloudy
7:52 PM 77.0 °F 48.0 °F 36% 30.01 in 10.0 mi ESE 4.6 mph - N/A   Clear
8:52 PM 71.1 °F 52.0 °F 51% 30.02 in 10.0 mi SE 5.8 mph - N/A   Clear
9:52 PM 66.9 °F 53.1 °F 61% 30.04 in 10.0 mi SSE 6.9 mph - N/A   Clear
10:52 PM 63.0 °F 53.1 °F 70% 30.06 in 10.0 mi South 5.8 mph - N/A   Clear
11:52 PM 62.1 °F 54.0 °F 75% 30.06 in 10.0 mi South 5.8 mph - N/A   Clear